星链-6231 (STARLINK-6231 )

导读

STARLINK-6231是美国太空探索技术公司 SpaceX 星链星座的卫星,于2023年5月31日由美国发射升空,它属于星链互联网卫星项目,该项目旨在为全球提供高速低延迟宽带互联网服务。STARLINK-6231入轨后,和其他星链卫星组网,进一步扩大星链星座服务覆盖范围。

Basic Information
目录编号:
56779
目录名称:
STARLINK-6231
国际标识:
2023-078N
轨道中心:
EARTH
卫星名称:
星链-6231
卫星全名:
星链-6231 (STARLINK-6231 )
卫星状态:
在轨 (已飞行1193 天)
发射日期:
2023-05-31 UTC
国别 :
美国 (US)
星等 :
--
Orbit Information
数据来源 国际轨道数据 AOE轨道数据
星历时间 2026-09-04T17:47:14+0800
14小时前
查看轨道信息
2026-08-30T23:00:00+0800
5天前
查看轨道信息
半长轴 6950.21km 6950.13km
偏心率 0.0003355 0.000126
轨道倾角 69.999° 69.998°
近地点辐角 263.788° 287.390°
升交点赤经 233.845° 245.903°
平近点角 96.289° 201.705°
近地点 569.741km 571.117km
远地点 574.405km 572.869km
周期 96.107分钟 96.106分钟
每日圈数 14.983246 14.983505
Detailed Information
固有亮度:
5
最大亮度:
2.5
卫星平台:
Starlink v1.5
覆盖范围:
全球
运营商:
太空探索技术公司
运营商所在国:
美国
制造商(研发单位):
太空探索技术公司
制造商所在国:
美国
使用方式:
暂无
Satellite Introduction
星链(Starlink)计划是由太空探索技术公司(SpaceX)提出的一个巨型低轨卫星互联网星座项目,计划在2019年至2024年间在太空搭建由约1.2万颗卫星组成的“星链”网络,其中1584颗将部署在地球上空550千米处的近地轨道,并从2020年开始工作。该卫星仍在工作。
2D Orbit Map
3D Orbit Map
Orbit Altitude Analysis Chart
Orbit Inclination Analysis Chart
Orbit Comprehensive Analysis Chart
View Comprehensive Chart
Conjunction Data List
Event ID Objects TCA Miss Dist (km) Collision Risk Probability Collision Risk Index (CRI) Action
CDM_260905-151504-283105-677923
2026-09-05T
15:15:38+0000
1.257 km
极远距离
1.234366E-5 中风险 0.57